Location: *
(46.1833°N, 22.7667°E)
Time: 01:47:50
(UTC+00:00)

NOSS 3-3 (C) - Pass Details

Date: 17 September 2019
Orbit: 849 x 1364 km, 63.4° (Epoch: 08 October)

Event Time Altitude Azimuth Distance (km) Brightness Sun altitude
Rises 17:05:05 0° 208° (SSW) 3,445 7.1 -5.6°
Reaches altitude 10° 17:07:28 10° 206° (SSW) 2,545 6.4 -6.0°
Maximum altitude 17:13:19 71° 124° (SE) 1,003 3.9 -7.0°
Drops below altitude 10° 17:19:54 10° 42° (NE) 2,850 6.2 -8.1°
Sets 17:22:42 0° 40° (NE) 3,887 6.9 -8.6°
